Location: Unspecified
(0.0000°N, 0.0000°E)
Time: 06:41:35
(UTC+00:00)

deb Explorer IX - Pass Details

Date: 23 June 2019
Orbit: 539 x 1112 km, 38.8° (Epoch: 17 July)

Event Time Altitude Azimuth Distance (km) Brightness Sun altitude
Rises 20:12:28 0° 328° (NNW) 3,687 ? -29.6°
Reaches altitude 10° 20:15:39 10° 339° (NNW) 2,648 ? -30.3°
Enters shadow 20:19:49 27° 17° (NNE) 1,613 ? -31.2°
